Location: Unspecified
(0.0000°N, 0.0000°E)
Time: 23:55:57
(UTC+00:00)

OTV 5 (USA 277) - Pass Details

Date: 21 July 2019
Orbit: 299 x 335 km, 54.5° (Epoch: 13 July)

Event Time Altitude Azimuth Distance (km) Brightness Sun altitude
Rises 18:33:37 0° 335° (NNW) 2,085 ? -6.4°
Reaches altitude 10° 18:35:38 10° 342° (NNW) 1,250 ? -6.8°
Maximum altitude 18:38:19 47° 57° (ENE) 444 ? -7.5°
Drops below altitude 10° 18:41:00 10° 133° (SE) 1,244 ? -8.1°
Enters shadow 18:41:05 - 134° (SE) 1,279 ? -8.1°
